When you browse on this site, cookies collect data to enhance your experience and personalize the content and advertising you see.
Visit our Privacy Policy to learn more. By continuing to use the site, you agree to this use of cookies and data.
  • în România
  • Lista ţărilor
  • Pe 7 zile
  • Temperatura apei
  • Meteo pe hartă
  • Widget-uri
  • user-avatar
    Intrare

    Meteo pe oră la Ipswich

    Astăzi, 5 Decembrie, Joi

    Timp Temperatura Precipitaţii Vânt Presiune Umiditate
    00:00 +1°C° 0 mm 3 m/s 764 mmHg 90%
    01:00 +1°C° 0 mm 3 m/s 763 mmHg 90%
    02:00 +1°C° 0 mm 3 m/s 763 mmHg 91%
    03:00 +1°C° 0 mm 3 m/s 763 mmHg 92%
    04:00 +1°C° 0 mm 3 m/s 763 mmHg 92%
    05:00 +1°C° 0 mm 3 m/s 763 mmHg 92%
    06:00 +1°C° 0 mm 3 m/s 764 mmHg 93%
    07:00 0°C° 0 mm 4 m/s 763 mmHg 93%
    08:00 +1°C° 0 mm 4 m/s 763 mmHg 93%
    09:00 +1°C° 0 mm 5 m/s 763 mmHg 93%
    10:00 +2°C° 0 mm 5 m/s 763 mmHg 90%
    11:00 +3°C° 0 mm 6 m/s 763 mmHg 87%
    12:00 +4°C° 0 mm 6 m/s 763 mmHg 85%
    13:00 +4°C° 0 mm 6 m/s 762 mmHg 84%
    14:00 +4°C° 0 mm 7 m/s 761 mmHg 83%
    15:00 +4°C° 0 mm 7 m/s 760 mmHg 83%
    16:00 +4°C° 0 mm 8 m/s 760 mmHg 81%
    17:00 +5°C° 0 mm 8 m/s 760 mmHg 79%
    18:00 +5°C° 0 mm 9 m/s 759 mmHg 78%
    19:00 +5°C° 0.1 mm 10 m/s 759 mmHg 77%
    20:00 +6°C° 0.1 mm 10 m/s 758 mmHg 76%
    21:00 +6°C° 0.1 mm 11 m/s 758 mmHg 74%
    22:00 +6°C° 0 mm 10 m/s 757 mmHg 77%
    23:00 +7°C° 0 mm 10 m/s 757 mmHg 80%

    Mâine, 6 Decembrie, Vineri

    Timp Temperatura Precipitaţii Vânt Presiune Umiditate
    00:00 +7°C° 0 mm 10 m/s 756 mmHg 83%
    01:00 +7°C° 0 mm 10 m/s 756 mmHg 84%
    02:00 +8°C° 0 mm 10 m/s 755 mmHg 86%
    03:00 +8°C° 0 mm 10 m/s 755 mmHg 87%
    04:00 +8°C° 0.1 mm 10 m/s 754 mmHg 88%
    05:00 +10°C° 0.1 mm 9 m/s 754 mmHg 89%
    06:00 +10°C° 0.1 mm 9 m/s 754 mmHg 89%
    07:00 +10°C° 0.2 mm 9 m/s 754 mmHg 89%
    08:00 +10°C° 0.2 mm 9 m/s 753 mmHg 89%
    09:00 +9°C° 0.2 mm 10 m/s 752 mmHg 89%
    10:00 +11°C° 0.1 mm 9 m/s 752 mmHg 88%
    11:00 +11°C° 0.1 mm 9 m/s 752 mmHg 87%
    12:00 +12°C° 0.1 mm 9 m/s 751 mmHg 86%
    13:00 +11°C° 0.2 mm 8 m/s 750 mmHg 85%
    14:00 +11°C° 0.2 mm 8 m/s 750 mmHg 84%
    15:00 +11°C° 0.2 mm 7 m/s 749 mmHg 82%
    16:00 +10°C° 0.4 mm 8 m/s 749 mmHg 80%
    17:00 +8°C° 0.4 mm 9 m/s 749 mmHg 79%
    18:00 +8°C° 0.4 mm 10 m/s 749 mmHg 77%
    19:00 +7°C° 0 mm 10 m/s 750 mmHg 78%
    20:00 +7°C° 0 mm 9 m/s 751 mmHg 80%
    21:00 +7°C° 0 mm 9 m/s 752 mmHg 81%
    22:00 +6°C° 0 mm 8 m/s 753 mmHg 83%
    23:00 +6°C° 0 mm 8 m/s 754 mmHg 85%

    Poimâine, 7 Decembrie, Sâmbătă

    Timp Temperatura Precipitaţii Vânt Presiune Umiditate
    00:00 +5°C° 0 mm 7 m/s 754 mmHg 87%
    01:00 +5°C° 0 mm 7 m/s 755 mmHg 88%
    02:00 +5°C° 0 mm 7 m/s 755 mmHg 88%
    03:00 +5°C° 0 mm 7 m/s 756 mmHg 89%
    04:00 +5°C° 0 mm 7 m/s 756 mmHg 89%
    05:00 +5°C° 0 mm 7 m/s 756 mmHg 89%
    06:00 +4°C° 0 mm 7 m/s 757 mmHg 89%
    07:00 +4°C° 0 mm 6 m/s 757 mmHg 89%
    08:00 +4°C° 0 mm 6 m/s 757 mmHg 89%
    09:00 +5°C° 0 mm 6 m/s 758 mmHg 89%
    10:00 +5°C° 0 mm 6 m/s 758 mmHg 86%
    11:00 +7°C° 0 mm 6 m/s 758 mmHg 83%
    12:00 +8°C° 0 mm 6 m/s 758 mmHg 80%
    13:00 +8°C° 0 mm 6 m/s 758 mmHg 82%
    14:00 +7°C° 0 mm 5 m/s 758 mmHg 83%
    15:00 +7°C° 0 mm 5 m/s 758 mmHg 84%
    16:00 +7°C° 0 mm 5 m/s 758 mmHg 86%
    17:00 +5°C° 0 mm 6 m/s 758 mmHg 89%
    18:00 +5°C° 0 mm 6 m/s 758 mmHg 91%
    19:00 +5°C° 0 mm 7 m/s 757 mmHg 91%
    20:00 +5°C° 0 mm 7 m/s 756 mmHg 91%
    21:00 +5°C° 0 mm 8 m/s 756 mmHg 91%
    22:00 +6°C° 0 mm 9 m/s 755 mmHg 90%
    23:00 +7°C° 0 mm 10 m/s 754 mmHg 89%

    8 Decembrie, Duminică

    Timp Temperatura Precipitaţii Vânt Presiune Umiditate
    00:00 +7°C° 0 mm 10 m/s 753 mmHg 88%
    01:00 +8°C° 0.9 mm 11 m/s 752 mmHg 88%
    02:00 +8°C° 0.9 mm 12 m/s 750 mmHg 88%
    03:00 +8°C° 0.9 mm 12 m/s 749 mmHg 88%
    04:00 +9°C° 0.2 mm 11 m/s 749 mmHg 87%
    05:00 +11°C° 0.2 mm 11 m/s 749 mmHg 86%
    06:00 +11°C° 0.2 mm 10 m/s 748 mmHg 86%
    07:00 +10°C° 0 mm 9 m/s 749 mmHg 83%
    08:00 +7°C° 0 mm 9 m/s 749 mmHg 80%
    09:00 +5°C° 0 mm 8 m/s 750 mmHg 77%
    10:00 +6°C° 0 mm 9 m/s 750 mmHg 75%
    11:00 +7°C° 0 mm 9 m/s 750 mmHg 73%
    12:00 +7°C° 0 mm 10 m/s 750 mmHg 70%
    13:00 +7°C° 0.3 mm 10 m/s 749 mmHg 73%
    14:00 +6°C° 0.3 mm 11 m/s 749 mmHg 77%
    15:00 +6°C° 0.3 mm 11 m/s 748 mmHg 80%
    16:00 +4°C° 0 mm 11 m/s 748 mmHg 78%
    17:00 +5°C° 0 mm 10 m/s 747 mmHg 76%
    18:00 +3°C° 0 mm 10 m/s 747 mmHg 74%
    19:00 +3°C° 0 mm 11 m/s 747 mmHg 74%
    20:00 +3°C° 0 mm 12 m/s 746 mmHg 74%
    21:00 +3°C° 0 mm 13 m/s 746 mmHg 74%
    22:00 +4°C° 0 mm 13 m/s 745 mmHg 73%
    23:00 +4°C° 0 mm 13 m/s 744 mmHg 73%

    9 Decembrie, Luni

    Timp Temperatura Precipitaţii Vânt Presiune Umiditate
    00:00 +4°C° 0 mm 14 m/s 743 mmHg 72%
    01:00 +4°C° 0 mm 14 m/s 743 mmHg 75%
    02:00 +4°C° 0 mm 14 m/s 742 mmHg 77%
    03:00 +4°C° 0 mm 14 m/s 742 mmHg 79%
    04:00 +4°C° 0.2 mm 14 m/s 742 mmHg 77%
    05:00 +4°C° 0.2 mm 14 m/s 742 mmHg 75%
    06:00 +4°C° 0.2 mm 15 m/s 742 mmHg 73%
    07:00 +5°C° 0.2 mm 14 m/s 744 mmHg 73%
    08:00 +5°C° 0.2 mm 14 m/s 745 mmHg 72%
    09:00 +6°C° 0.2 mm 14 m/s 746 mmHg 72%
    10:00 +7°C° 0 mm 13 m/s 749 mmHg 69%
    11:00 +7°C° 0 mm 13 m/s 751 mmHg 65%
    12:00 +5°C° 0 mm 13 m/s 753 mmHg 62%
    13:00 +5°C° 0 mm 12 m/s 754 mmHg 62%
    14:00 +6°C° 0 mm 11 m/s 756 mmHg 62%
    15:00 +5°C° 0 mm 10 m/s 757 mmHg 63%
    16:00 +5°C° 0 mm 9 m/s 758 mmHg 65%
    17:00 +4°C° 0 mm 8 m/s 760 mmHg 67%
    18:00 +4°C° 0 mm 8 m/s 761 mmHg 70%
    19:00 +3°C° 0 mm 7 m/s 761 mmHg 73%
    20:00 +3°C° 0 mm 6 m/s 762 mmHg 77%
    21:00 +2°C° 0 mm 5 m/s 763 mmHg 81%
    22:00 +2°C° 0 mm 5 m/s 763 mmHg 83%
    23:00 +3°C° 0 mm 4 m/s 763 mmHg 86%

    10 Decembrie, Marţi

    Timp Temperatura Precipitaţii Vânt Presiune Umiditate
    00:00 +3°C° 0 mm 4 m/s 763 mmHg 88%
    01:00 +3°C° 0 mm 4 m/s 762 mmHg 87%
    02:00 +3°C° 0 mm 4 m/s 762 mmHg 87%
    03:00 +3°C° 0 mm 5 m/s 761 mmHg 86%
    04:00 +3°C° 0.4 mm 6 m/s 760 mmHg 88%
    05:00 +4°C° 0.4 mm 7 m/s 759 mmHg 91%
    06:00 +5°C° 0.4 mm 8 m/s 758 mmHg 93%
    07:00 +5°C° 1.8 mm 9 m/s 756 mmHg 92%
    08:00 +6°C° 1.8 mm 11 m/s 755 mmHg 91%
    09:00 +5°C° 1.8 mm 12 m/s 753 mmHg 91%
    10:00 +7°C° 2 mm 12 m/s 752 mmHg 91%
    11:00 +8°C° 2 mm 12 m/s 750 mmHg 91%
    12:00 +9°C° 2 mm 12 m/s 749 mmHg 92%
    13:00 +10°C° 0.2 mm 12 m/s 748 mmHg 89%
    14:00 +12°C° 0.2 mm 12 m/s 747 mmHg 87%
    15:00 +12°C° 0.2 mm 11 m/s 745 mmHg 85%
    16:00 +12°C° 0.1 mm 12 m/s 745 mmHg 84%
    17:00 +12°C° 0.1 mm 13 m/s 744 mmHg 84%
    18:00 +12°C° 0.1 mm 14 m/s 743 mmHg 83%
    19:00 +9°C° 0.3 mm 13 m/s 744 mmHg 80%
    20:00 +8°C° 0.3 mm 13 m/s 745 mmHg 76%
    21:00 +5°C° 0.3 mm 12 m/s 746 mmHg 72%
    22:00 +4°C° 0 mm 11 m/s 747 mmHg 72%
    23:00 +4°C° 0 mm 11 m/s 748 mmHg 71%
    Arată mai mult